Search for airport 
image banner adimage banner adimage banner ad
image banner ad

CN16 - Mercy Hospital Of Folsom

Located in Folsom, United States

ICAO - CN16, IATA -

Data provided by Airmate  

General information

Coordinates: N38°40'15" W121°8'34"
Elevation is 335 feet MSL.
 
View others Airports in California

Operational data

Special qualification required
Current time UTC:
Current local time:
Weather at : KMHR - Sacramento Mather ( 19 km )
METAR: KMHR 260855Z 15005KT 10SM CLR 13/10 A2996 RMK A01 PRESFR
TAF: KMHR 260537Z 2606/2706 18008KT P6SM SKC FM260900 15006KT P6SM SCT250 FM261300 15006KT P6SM OVC010 FM261800 20006KT P6SM SKC FM262100 20008KT P6SM SCT250
View NOTAMs / SUP AIP / TFR affecting this airport [VIEW]
Communications frequencies: [VIEW]

Runways:

Airport contact information

Address: Folsom United States

Satellite view of CN16